[[{"header":{"parameterUnit":"m.s-1","parameterCategory":1,"la1":30.2991,"la2":30.254,"lo1":-89.0895,"lo2":-89.0444,"dy":0.0017,"dx":0.0017,"nx":28,"ny":28,"refTime":"2024-05-23T09:00:00:Z","depth":0,"parameterNumber":2,"parameterNumberName":"U-component_of_WINDS"},"data":[0,0,0,0,0,0,0,0,0,0,0,0,0,0,0,0,0,0,0,0,0,0,0,0,0,0,0,0,0,0,0,0,0,0,0,0,0,0,0,0,0,0,0,0,0,0,0,0,0,0,0,0,0,0,0,0,0,0,-1.7528,-1.7527,0,-1.7501,-1.7501,-1.75,-1.7465,-1.7465,-1.7464,-1.7464,-1.7437,-1.7437,-1.7437,0,0,0,0,0,0,0,0,0,0,0,0,0,-1.7548,-1.7548,-1.7528,-1.7527,-1.7527,-1.7501,-1.75,-1.75,-1.7465,-1.7465,-1.7464,-1.7463,-1.7437,-1.7437,-1.7437,0,0,0,0,0,0,0,0,0,0,0,0,0,-1.7532,-1.7548,-1.7528,-1.7506,-1.7504,-1.7501,-1.75,-1.75,-1.7465,-1.7465,-1.7464,-1.7463,-1.7437,-1.7437,-1.7436,-1.7452,0,0,-1.7436,-1.7436,0,0,0,0,0,0,0,0,-1.7533,-1.7531,-1.751,-1.7508,-1.7505,-1.7485,-1.7498,-1.7484,-1.7466,-1.748,-1.7464,-1.7463,-1.7454,-1.7452,-1.7449,-1.7451,-1.745,-1.7436,-1.7435,-1.7435,-1.7435,0,0,0,0,0,0,0,-1.7534,-1.7532,-1.7517,-1.751,-1.7507,-1.7498,-1.7495,-1.7495,-1.7472,-1.7479,-1.7476,-1.7474,-1.7452,-1.7449,-1.7448,-1.7449,-1.7436,-1.7435,-1.7435,-1.7435,-1.746,-1.7461,0,0,0,0,0,0,-1.7538,-1.7533,-1.7518,-1.7516,-1.7517,-1.7498,-1.7495,-1.7493,-1.7472,-1.7468,-1.7474,-1.7472,-1.745,-1.7448,-1.7447,-1.7462,-1.7435,-1.7435,-1.7435,-1.746,-1.7461,-1.7461,0,0,0,0,0,0,-1.7539,-1.7537,-1.7519,-1.7524,-1.7521,-1.7499,-1.7497,-1.7493,-1.749,-1.7469,-1.7464,-1.7475,-1.7449,-1.7447,-1.7451,-1.7461,-1.7435,-1.7435,-1.7459,-1.746,-1.7461,-1.7494,0,0,0,0,0,0,-1.754,-1.7538,-1.7544,-1.7524,-1.7521,-1.7523,-1.7498,-1.7493,-1.7489,-1.7486,-1.7468,-1.7465,-1.7449,-1.7451,-1.745,-1.746,-1.7435,-1.7458,-1.7459,-1.7461,-1.7492,-1.7497,-1.75,0,0,0,0,0,-1.7541,-1.7555,-1.7544,-1.7543,-1.7528,-1.7524,-1.7522,-1.7503,-1.749,-1.7496,-1.7482,-1.7465,-1.746,-1.7452,-1.7451,-1.7461,-1.7457,-1.7459,-1.746,-1.749,-1.7496,-1.75,0,0,0,0,0,0,-1.7577,-1.7552,-1.754,-1.7548,-1.7538,-1.7518,-1.7525,-1.7509,-1.7503,-1.75,-1.7477,-1.7473,-1.7479,-1.747,-1.7461,-1.7473,-1.7456,-1.7458,-1.7479,-1.7484,-1.7488,-1.749,-1.7434,0,0,0,0,0,-1.7585,-1.7584,-1.7563,-1.7572,-1.7568,-1.7547,-1.7545,-1.7531,-1.752,-1.7515,-1.7502,-1.7492,-1.7487,-1.7485,-1.748,-1.7491,-1.7486,-1.7497,-1.7501,-1.7504,-1.7506,-1.7509,-1.7513,-1.7468,-1.7468,-1.7467,0,0,-1.7604,-1.759,-1.7591,-1.7579,-1.757,-1.7569,-1.7544,-1.7544,-1.7543,-1.7515,-1.7517,-1.7507,-1.7494,-1.75,-1.7502,-1.7493,-1.7517,-1.7507,-1.751,-1.7509,-1.7511,-1.7516,-1.7519,-1.7469,-1.7469,-1.7468,0,0,-1.7637,-1.7627,-1.7633,-1.7624,-1.7609,-1.7595,-1.7597,-1.7578,-1.757,-1.7571,-1.755,-1.7548,-1.7542,-1.7533,-1.7527,-1.7555,-1.7539,-1.7554,-1.7575,-1.7578,-1.7582,-1.7585,-1.7593,-1.7596,-1.7556,-1.7556,-1.7556,0,-1.7662,-1.7659,-1.7638,-1.7639,-1.7634,-1.7608,-1.7613,-1.7605,-1.7591,-1.7587,-1.7577,-1.7567,-1.7557,-1.756,-1.7566,-1.7563,-1.7563,-1.7556,-1.7583,-1.7586,-1.7588,-1.7596,-1.7599,-1.7558,-1.7557,-1.7557,-1.7557,0,-1.769,-1.7688,-1.7695,-1.768,-1.7675,-1.7679,-1.7658,-1.7656,-1.7641,-1.7628,-1.7629,-1.7615,-1.7606,-1.7606,-1.7593,-1.7606,-1.7601,-1.7587,-1.7569,-1.7595,-1.7601,-1.7604,-1.756,-1.756,-1.7559,-1.7559,0,0,-1.7746,-1.7718,-1.772,-1.7712,-1.7694,-1.7692,-1.7694,-1.7684,-1.7682,-1.7673,-1.7673,-1.7667,-1.7653,-1.7647,-1.7633,-1.7636,-1.7656,-1.7621,-1.762,-1.7627,-1.7668,-1.7678,-1.7682,-1.7646,-1.7646,-1.7646,-1.7669,0,-1.7774,-1.7775,-1.7755,-1.7762,-1.7759,-1.7733,-1.7734,-1.7723,-1.771,-1.7706,-1.7692,-1.7687,-1.7671,-1.7667,-1.7668,-1.7653,-1.7664,-1.7652,-1.7644,-1.7644,-1.7648,-1.7686,-1.7697,-1.7719,-1.7672,-1.7672,-1.7673,0,-1.7809,-1.7799,-1.7805,-1.7784,-1.7783,-1.7784,-1.7773,-1.7769,-1.7755,-1.7745,-1.7737,-1.772,-1.7719,-1.7702,-1.77,-1.7692,-1.7688,-1.768,-1.768,-1.7678,-1.766,-1.7684,-1.7726,-1.7729,-1.7677,-1.7676,-1.7676,0,-1.7847,-1.7836,-1.7838,-1.7832,-1.7809,-1.781,-1.78,-1.7785,-1.778,-1.777,-1.7766,-1.7757,-1.7751,-1.7744,-1.7724,-1.7714,-1.7724,-1.7705,-1.7715,-1.7715,-1.7718,-1.7718,-1.7758,-1.7717,-1.7717,-1.7716,-1.7716,0,-1.7881,-1.7885,-1.7855,-1.7856,-1.7859,-1.7836,-1.784,-1.7827,-1.7814,-1.7811,-1.7789,-1.7787,-1.7761,-1.7756,-1.7741,-1.774,-1.7738,-1.773,-1.7725,-1.7731,-1.7732,-1.7728,-1.7725,-1.7717,-1.7717,-1.7717,-1.7717,0,-1.7925,-1.7905,-1.7905,-1.7882,-1.7876,-1.7879,-1.7859,-1.7859,-1.7844,-1.7841,-1.7839,-1.7815,-1.7808,-1.7787,-1.7775,-1.7764,-1.7768,-1.7761,-1.7773,-1.777,-1.778,-1.7779,-1.7819,-1.7822,-1.7779,-1.7779,-1.778,0,-1.7948,-1.7951,-1.7927,-1.7924,-1.7914,-1.7909,-1.7903,-1.788,-1.7875,-1.7857,-1.7859,-1.7849,-1.784,-1.783,-1.7811,-1.7801,-1.7793,-1.7807,-1.7791,-1.7796,-1.7791,-1.7791,-1.7791,-1.7811,-1.7811,-1.7812,-1.7812,0,-1.7991,-1.798,-1.7972,-1.7961,-1.7954,-1.7944,-1.7933,-1.7931,-1.7905,-1.79,-1.7891,-1.7884,-1.7871,-1.7861,-1.7848,-1.7837,-1.782,-1.7817,-1.7819,-1.7824,-1.7831,-1.7826,-1.7781,-1.7817,-1.7816,-1.7816,-1.7816,-1.7815,-1.8024,-1.8024,-1.8007,-1.7999,-1.7988,-1.7977,-1.7975,-1.7959,-1.7951,-1.7938,-1.7924,-1.7917,-1.7901,-1.7881,-1.7871,-1.7864,-1.7855,-1.7858,-1.7858,-1.7859,-1.7861,-1.7832,-1.7862,-1.7862,-1.7862,-1.7861,-1.7861,0,-1.8064,-1.8052,-1.8044,-1.8028,-1.8021,-1.8005,-1.7991,-1.7986,-1.798,-1.7966,-1.7957,-1.7946,-1.7936,-1.7917,-1.7905,-1.7903,-1.7895,-1.7901,-1.79,-1.7898,-1.787,-1.787,-1.7907,-1.7907,-1.7907,-1.7907,-1.7907,-1.7907,-1.8085,-1.8083,-1.807,-1.8063,-1.805,-1.8042,-1.8035,-1.8024,-1.8013,-1.8002,-1.7993,-1.798,-1.7963,-1.7949,-1.7939,-1.7933,-1.7929,-1.7937,-1.7929,-1.7904,-1.79,-1.7896,-1.7895,-1.7937,-1.7937,-1.7957,-1.7957,-1.7957]},{"header":{"parameterUnit":"m.s-1","parameterCategory":1,"la1":30.2991,"la2":30.254,"lo1":-89.0895,"lo2":-89.0444,"dy":0.0017,"dx":0.0017,"nx":28,"ny":28,"refTime":"2024-05-23T09:00:00:Z","depth":0,"parameterNumber":3,"parameterNumberName":"V-component_of_WINDS"},"data":[0,0,0,0,0,0,0,0,0,0,0,0,0,0,0,0,0,0,0,0,0,0,0,0,0,0,0,0,0,0,0,0,0,0,0,0,0,0,0,0,0,0,0,0,0,0,0,0,0,0,0,0,0,0,0,0,0,0,6.4109,6.411,0,6.4224,6.4226,6.4227,6.4194,6.4191,6.4189,6.4187,6.4297,6.4302,6.4307,0,0,0,0,0,0,0,0,0,0,0,0,0,6.3849,6.3854,6.4109,6.411,6.4112,6.4224,6.4226,6.4227,6.4194,6.4191,6.4188,6.4186,6.4295,6.4301,6.4308,0,0,0,0,0,0,0,0,0,0,0,0,0,6.3963,6.3856,6.4108,6.4109,6.411,6.4224,6.4226,6.4228,6.4195,6.4191,6.4188,6.4184,6.4293,6.4301,6.4308,6.4426,0,0,6.4332,6.4335,0,0,0,0,0,0,0,0,6.3956,6.3972,6.4107,6.4109,6.4111,6.4191,6.4174,6.4294,6.4196,6.4162,6.4187,6.4183,6.4264,6.4274,6.4303,6.4431,6.4436,6.4333,6.4337,6.434,6.4343,0,0,0,0,0,0,0,6.3949,6.3967,6.4154,6.4109,6.4111,6.41,6.4112,6.4197,6.4231,6.4165,6.4163,6.4177,6.4264,6.4296,6.4305,6.4438,6.4332,6.4339,6.4344,6.4347,6.4664,6.4668,0,0,0,0,0,0,6.3941,6.3961,6.415,6.4158,6.4023,6.4107,6.4121,6.4169,6.423,6.4236,6.418,6.4175,6.4284,6.4296,6.4309,6.4449,6.434,6.4348,6.4352,6.466,6.4665,6.4669,0,0,0,0,0,0,6.3935,6.3958,6.4146,6.4059,6.4082,6.4116,6.4169,6.4173,6.4204,6.4242,6.4247,6.4207,6.4282,6.4298,6.4397,6.4452,6.4351,6.4358,6.4656,6.4662,6.4667,6.473,0,0,0,0,0,0,6.3928,6.3956,6.4004,6.406,6.4087,6.4235,6.4173,6.4178,6.4219,6.4213,6.4268,6.4274,6.4281,6.4386,6.4405,6.4461,6.4364,6.4651,6.4658,6.4665,6.4723,6.4737,6.4749,0,0,0,0,0,6.3919,6.4016,6.4007,6.403,6.4148,6.4238,6.4253,6.4261,6.4224,6.427,6.4293,6.4272,6.4443,6.4396,6.4417,6.4476,6.4647,6.4656,6.4665,6.4717,6.4734,6.4749,0,0,0,0,0,0,6.3963,6.4024,6.4014,6.4133,6.4181,6.4233,6.4292,6.428,6.4337,6.433,6.4334,6.4347,6.4447,6.4472,6.4418,6.4592,6.4539,6.4553,6.4572,6.4589,6.4602,6.4593,6.437,0,0,0,0,0,6.3987,6.4059,6.4107,6.4207,6.4232,6.4258,6.4297,6.43,6.4348,6.4368,6.4399,6.4445,6.4508,6.455,6.4611,6.4727,6.4736,6.4777,6.4791,6.4801,6.4812,6.4871,6.4889,6.4697,6.4697,6.4697,0,0,6.4037,6.4079,6.4123,6.4217,6.4254,6.4325,6.4275,6.4353,6.4404,6.4379,6.4474,6.4498,6.4549,6.4656,6.4705,6.4679,6.4867,6.4812,6.482,6.4825,6.4882,6.49,6.4916,6.4703,6.4702,6.4701,0,0,6.4163,6.4204,6.429,6.4329,6.4387,6.4403,6.4424,6.4478,6.4493,6.4589,6.4571,6.463,6.4741,6.4777,6.481,6.4948,6.4929,6.4967,6.5035,6.5093,6.5108,6.5121,6.5167,6.5184,6.4978,6.4978,6.4978,0,6.4217,6.4326,6.4335,6.4415,6.4454,6.4437,6.4522,6.4558,6.4632,6.4658,6.463,6.4767,6.48,6.4914,6.4947,6.4975,6.4996,6.496,6.5105,6.5119,6.5131,6.5175,6.5193,6.4982,6.4982,6.4982,6.4981,0,6.4387,6.4463,6.4525,6.4599,6.4646,6.4728,6.4746,6.4792,6.4789,6.4807,6.4902,6.4942,6.5009,6.5036,6.5034,6.5149,6.5131,6.5104,6.5051,6.5153,6.5194,6.5212,6.4988,6.4987,6.4986,6.4985,0,0,6.4545,6.4623,6.4645,6.4677,6.4739,6.4796,6.4874,6.4943,6.498,6.5031,6.5095,6.5188,6.5163,6.52,6.5201,6.5252,6.5355,6.5218,6.5219,6.524,6.5479,6.5498,6.5517,6.5343,6.5347,6.5349,6.5474,0,6.4675,6.4818,6.4827,6.4954,6.5022,6.5005,6.5073,6.5116,6.5134,6.5192,6.521,6.5276,6.5239,6.5261,6.5311,6.5332,6.5402,6.5323,6.5399,6.5402,6.5385,6.5539,6.556,6.5676,6.549,6.5493,6.5495,0,6.4846,6.4904,6.5038,6.5088,6.5116,6.5178,6.5239,6.5295,6.5342,6.5351,6.5393,6.5386,6.5463,6.5409,6.5512,6.5458,6.549,6.5504,6.5509,6.5515,6.5453,6.5547,6.5713,6.573,6.5521,6.5519,6.5517,0,6.4944,6.5055,6.5149,6.5178,6.5239,6.5282,6.5308,6.5352,6.5391,6.5444,6.5468,6.5529,6.5561,6.5606,6.5614,6.5575,6.5717,6.5664,6.5724,6.5723,6.5753,6.5751,6.5925,6.5777,6.5777,6.5777,6.5776,0,6.5087,6.5169,6.5194,6.5252,6.5342,6.535,6.5438,6.5461,6.55,6.5559,6.5548,6.5602,6.5611,6.5667,6.5674,6.5757,6.5772,6.5779,6.5779,6.5779,6.5778,6.5798,6.5789,6.5781,6.578,6.5779,6.5779,0,6.5212,6.5233,6.5334,6.5383,6.5397,6.5461,6.5501,6.5555,6.5571,6.5646,6.5663,6.5688,6.5753,6.5766,6.5843,6.5847,6.5945,6.5938,6.593,6.5928,6.5986,6.5979,6.6177,6.6202,6.6041,6.6042,6.6044,0,6.5302,6.5365,6.5421,6.546,6.549,6.5554,6.5594,6.5603,6.5645,6.5702,6.5747,6.5811,6.5863,6.5966,6.5989,6.6046,6.6039,6.6105,6.6048,6.6044,6.6037,6.6032,6.6037,6.6115,6.6117,6.6118,6.6119,0,6.5457,6.5463,6.5523,6.5586,6.5634,6.5683,6.573,6.5762,6.5777,6.5823,6.589,6.5931,6.6008,6.6071,6.6128,6.6151,6.6137,6.6137,6.6154,6.6153,6.6144,6.6147,6.5957,6.6132,6.6131,6.613,6.6129,6.6129,6.5565,6.5619,6.5666,6.5732,6.5768,6.5811,6.5863,6.5886,6.5943,6.6009,6.601,6.6082,6.6123,6.6199,6.6226,6.628,6.6259,6.6283,6.6289,6.6294,6.6298,6.6137,6.629,6.629,6.629,6.629,6.6289,0,6.5717,6.5746,6.5807,6.5873,6.5923,6.5908,6.5958,6.6,6.6065,6.6106,6.6157,6.6232,6.6291,6.6319,6.6376,6.6414,6.6409,6.6429,6.6425,6.643,6.6315,6.6294,6.6432,6.6432,6.6432,6.6432,6.6432,6.6432,6.5802,6.5892,6.5903,6.6009,6.6036,6.6109,6.6138,6.6176,6.6209,6.6294,6.6344,6.6362,6.6396,6.6456,6.6509,6.6515,6.6535,6.6558,6.6561,6.6453,6.6438,6.6424,6.6405,6.6563,6.6563,6.667,6.6671,6.6672]}]]